Weather in Kiyevskiy

Russia / Tomsk District     59°46′03″N   80°23′54″E
temp.,
°C
wind,
m/s
gust,
m/s
humid.,
%
clouds,
%
prec.,
mm/h
press.,
hPa
HPBL,
m
5 march, fri
fri501:00−4sse51295100 0.9 1000691
04:00−1ssw51296100 1.3 998904
07:00−2s61293100 2.2 997886
10:00−3s51290100 0.3 997837
13:00−2s5995100 0.8 997746
16:00−3s4996100 1.1 996676
19:00−2w4896100 2.9 999599
22:00−5sw4119698 0.3 1000579
6 march, sat
sat601:00−6ssw399394 0.4 1002447
04:00−7s3895100 0.4 1001417
07:00−8sse2796100 0.6 1001218
10:00−4ssw3895100 0.3 1000545
13:00−2ssw4790100 0.6 998871
16:00−2s2595100 0.4 997443
19:00−3ssw4996100 1.2 996749
22:00−3wsw3797100 1.5 996469
7 march, sun
sun701:00−6wsw51192100 2.0 997540
04:00−7wsw41093100 0.4 999606
07:00−10wsw51193100 0.7 1002548
10:00−10wsw51192100 0.2 1004634
13:00−8w4992100 0.5 1008674
16:00−7wsw4791100 0.3 1010844
19:00−10wsw3991100 0.4 1013439
22:00−14sw369584 0.0 1014124
8 march, mon
mon801:00−16s239687 0.0 101433
04:00−14se3894100 0.0 1011268
07:00−11se51295100 0.9 1007630
10:00−9se61394100 2.4 999738
13:00−4se61396100 5.8 992575
16:000s71489100 2.0 9881309
19:00−6wsw8159199 2.8 9901027
22:00−11w71487100 0.3 9961082
9 march, tue
tue901:00−13w61489100 0.4 1002848
04:00−15w51392100 0.1 1007545
07:00−17wsw41194100 0.1 1011357
10:00−15wsw4994100 0.1 1012462
13:00−12wsw3790100 0.1 1014732
16:00−10sw3688100 0.1 1014860
19:00−11s2795100 0.2 1014263
22:00−11sse41094100 0.1 1011424